[[{"header":{"parameterUnit":"m.s-1","parameterCategory":2,"la1":30.2991,"la2":30.254,"lo1":-89.0895,"lo2":-89.0444,"dy":0.0017,"dx":0.0017,"nx":28,"ny":28,"refTime":"2023-10-03T21:00:00:Z","depth":"0","parameterNumber":2,"parameterNumberName":"U-component_of_CURRENTS"},"data":[0,0,0,0,0,0,0,0,0,0,0,0,0,0,0,0,0,0,0,0,0,0,0,0,0,0,0,0,0,0,0,0,0,0,0,0,0,0,0,0,0,0,0,0,0,0,0,0,0,0,0,0,0,0,0,0,0,0,0.2621,0.2621,0,0.2663,0.2664,0.2664,0.2702,0.2702,0.2703,0.2703,0.2756,0.2757,0.2758,0,0,0,0,0,0,0,0,0,0,0,0,0,0.2614,0.2614,0.262,0.2621,0.2622,0.2663,0.2664,0.2664,0.2702,0.2702,0.2703,0.2703,0.2755,0.2756,0.2758,0,0,0,0,0,0,0,0,0,0,0,0,0,0.2632,0.2613,0.262,0.2646,0.2648,0.2663,0.2664,0.2664,0.2701,0.2702,0.2703,0.2703,0.2755,0.2756,0.2758,0.2753,0,0,0.2762,0.2763,0,0,0,0,0,0,0,0,0.2631,0.2632,0.2641,0.2644,0.2647,0.2678,0.2681,0.2694,0.2701,0.2681,0.2703,0.2704,0.273,0.2734,0.274,0.2755,0.2757,0.2762,0.2763,0.2764,0.2764,0,0,0,0,0,0,0,0.263,0.2631,0.2637,0.2642,0.2645,0.2669,0.2672,0.2684,0.2701,0.2683,0.2686,0.2691,0.2732,0.2738,0.2741,0.2758,0.2762,0.2764,0.2764,0.2765,0.2832,0.2833,0,0,0,0,0,0,0.2622,0.2629,0.2636,0.2638,0.2641,0.2669,0.2672,0.2667,0.2701,0.2707,0.269,0.2692,0.2735,0.2739,0.2743,0.2806,0.2764,0.2765,0.2766,0.2831,0.2832,0.2833,0,0,0,0,0,0,0.2621,0.2622,0.2634,0.2636,0.2639,0.2668,0.2662,0.2668,0.2679,0.2706,0.2713,0.2697,0.2736,0.2741,0.2771,0.2806,0.2766,0.2767,0.283,0.2832,0.2833,0.289,0,0,0,0,0,0,0.2621,0.2621,0.2616,0.2635,0.2639,0.265,0.2662,0.2668,0.2681,0.2685,0.2714,0.2719,0.2737,0.2769,0.2772,0.2807,0.2768,0.2829,0.2831,0.2832,0.2887,0.2893,0.2898,0,0,0,0,0,0.262,0.261,0.2615,0.2616,0.263,0.265,0.2654,0.2677,0.2681,0.2689,0.2715,0.2719,0.2782,0.277,0.2775,0.2811,0.2828,0.283,0.2832,0.2884,0.2891,0.2898,0,0,0,0,0,0,0.2601,0.2614,0.2619,0.2612,0.2633,0.2657,0.2665,0.2675,0.27,0.2705,0.2727,0.2735,0.2779,0.2777,0.2763,0.2834,0.2807,0.281,0.2845,0.2852,0.2858,0.2874,0.2769,0,0,0,0,0,0.2594,0.2592,0.2611,0.2607,0.2617,0.2639,0.2648,0.2664,0.2688,0.2699,0.2719,0.2746,0.2788,0.2804,0.2831,0.2859,0.2889,0.2885,0.289,0.2895,0.2911,0.2991,0.3007,0.284,0.284,0.284,0,0,0.2584,0.2592,0.259,0.2603,0.262,0.2645,0.2647,0.2664,0.2695,0.27,0.2741,0.2765,0.28,0.2849,0.2867,0.2852,0.2957,0.2898,0.2902,0.2916,0.2995,0.3012,0.3027,0.2841,0.2841,0.2841,0,0,0.2574,0.2573,0.2575,0.2594,0.262,0.2643,0.2647,0.2672,0.2697,0.2731,0.276,0.2806,0.2837,0.2891,0.2919,0.2965,0.2986,0.2964,0.3009,0.3087,0.3102,0.3116,0.3171,0.319,0.2965,0.2965,0.2966,0,0.2566,0.257,0.258,0.2596,0.262,0.2643,0.2667,0.2698,0.2731,0.2768,0.2749,0.285,0.2868,0.2971,0.2989,0.2984,0.3019,0.2983,0.3097,0.3111,0.3125,0.3178,0.3198,0.2968,0.2968,0.2968,0.2967,0,0.2565,0.2576,0.2581,0.2615,0.2641,0.2662,0.271,0.2742,0.2767,0.2806,0.2892,0.2925,0.2993,0.3004,0.3011,0.312,0.3113,0.3099,0.3085,0.3145,0.3197,0.3217,0.2973,0.2972,0.2971,0.297,0,0,0.2527,0.2573,0.2574,0.2601,0.2655,0.2677,0.2742,0.2816,0.2875,0.2912,0.2999,0.3067,0.309,0.3123,0.3146,0.3205,0.3319,0.3189,0.3192,0.3253,0.3486,0.3426,0.3441,0.3329,0.3333,0.3336,0.3484,0,0.2528,0.2559,0.259,0.2638,0.2664,0.2722,0.2787,0.286,0.2921,0.3008,0.3078,0.3159,0.3138,0.3178,0.3241,0.3306,0.3373,0.3279,0.3411,0.3414,0.3362,0.3463,0.3281,0.3394,0.3503,0.3506,0.3509,0,0.2515,0.2543,0.2583,0.2666,0.2685,0.2723,0.2839,0.2904,0.304,0.309,0.3189,0.3244,0.3363,0.3318,0.3477,0.3419,0.3462,0.3496,0.3503,0.3443,0.3391,0.3351,0.3425,0.3366,0.3538,0.3536,0.3534,0,0.2479,0.254,0.2575,0.2598,0.2693,0.2736,0.2802,0.2927,0.3004,0.3155,0.3233,0.336,0.3447,0.3523,0.3596,0.3551,0.3758,0.3703,0.3694,0.3689,0.3559,0.3536,0.3598,0.3824,0.3824,0.3823,0.3823,0,0.2463,0.2489,0.2558,0.2574,0.2636,0.2718,0.2808,0.2896,0.3043,0.3148,0.3277,0.3376,0.3505,0.3631,0.366,0.3751,0.3819,0.3735,0.3741,0.357,0.3548,0.3506,0.3463,0.3829,0.3827,0.3826,0.3825,0,0.241,0.2455,0.2495,0.2585,0.2613,0.2658,0.279,0.2866,0.302,0.3165,0.3224,0.3432,0.3592,0.3715,0.3858,0.3844,0.3811,0.393,0.3712,0.3689,0.357,0.3535,0.3463,0.3359,0.3935,0.3935,0.3934,0,0.2385,0.2399,0.2475,0.2498,0.2534,0.2611,0.2671,0.2824,0.2912,0.3177,0.3247,0.3475,0.3591,0.3806,0.383,0.3912,0.3821,0.3795,0.3667,0.3574,0.3541,0.3387,0.3293,0.3519,0.3515,0.3512,0.351,0,0.234,0.2364,0.2397,0.2439,0.2486,0.2552,0.2652,0.2713,0.2912,0.3037,0.322,0.3341,0.3569,0.3585,0.3724,0.3731,0.3589,0.3733,0.3705,0.3288,0.3058,0.2955,0.3406,0.3483,0.3485,0.3487,0.3489,0.349,0.2299,0.2304,0.2343,0.2374,0.2424,0.248,0.2496,0.2611,0.2719,0.2873,0.3063,0.3185,0.3343,0.3492,0.3494,0.343,0.3406,0.333,0.3319,0.3192,0.3007,0.3394,0.343,0.3432,0.3434,0.3436,0.3437,0,0.2236,0.225,0.228,0.2303,0.2311,0.238,0.2466,0.2463,0.2508,0.2684,0.2794,0.2959,0.3005,0.3136,0.3161,0.3048,0.2872,0.2986,0.2735,0.2683,0.3102,0.3,0.286,0.286,0.286,0.286,0.286,0.286,0.2206,0.2196,0.2205,0.2177,0.2194,0.2171,0.219,0.2201,0.2287,0.2362,0.2454,0.259,0.2852,0.2952,0.289,0.2814,0.2602,0.2448,0.2494,0.2809,0.2839,0.2868,0.2765,0.2579,0.2578,0.1919,0.1914,0.1911]},{"header":{"parameterUnit":"m.s-1","parameterCategory":2,"la1":30.2991,"la2":30.254,"lo1":-89.0895,"lo2":-89.0444,"dy":0.0017,"dx":0.0017,"nx":28,"ny":28,"refTime":"2023-10-03T21:00:00:Z","depth":"0","parameterNumber":3,"parameterNumberName":"V-component_of_CURRENTS"},"data":[0,0,0,0,0,0,0,0,0,0,0,0,0,0,0,0,0,0,0,0,0,0,0,0,0,0,0,0,0,0,0,0,0,0,0,0,0,0,0,0,0,0,0,0,0,0,0,0,0,0,0,0,0,0,0,0,0,0,0.0071,0.007,0,-0.0005,-0.0006,-0.0007,-0.006,-0.006,-0.0061,-0.0061,-0.0155,-0.0158,-0.016,0,0,0,0,0,0,0,0,0,0,0,0,0,0.0128,0.0127,0.0071,0.007,0.0069,-0.0005,-0.0006,-0.0008,-0.006,-0.006,-0.0061,-0.0061,-0.0155,-0.0157,-0.016,0,0,0,0,0,0,0,0,0,0,0,0,0,0.0081,0.0127,0.0071,0.0035,0.0031,-0.0005,-0.0007,-0.0008,-0.006,-0.006,-0.0061,-0.0061,-0.0154,-0.0157,-0.016,-0.0173,0,0,-0.0171,-0.0172,0,0,0,0,0,0,0,0,0.0084,0.0079,0.0041,0.0037,0.0033,-0.0023,-0.0021,-0.0064,-0.006,-0.0027,-0.0061,-0.0061,-0.0112,-0.0118,-0.0133,-0.0177,-0.0181,-0.0171,-0.0173,-0.0174,-0.0175,0,0,0,0,0,0,0,0.0088,0.0082,0.0039,0.004,0.0035,0.0008,0.0001,-0.0029,-0.0067,-0.003,-0.0033,-0.004,-0.0114,-0.013,-0.0136,-0.0182,-0.0171,-0.0174,-0.0176,-0.0177,-0.0252,-0.0252,0,0,0,0,0,0,0.0102,0.0085,0.0042,0.0037,0.0059,0.0007,-0.0,-0.0005,-0.0066,-0.0076,-0.0039,-0.0042,-0.0124,-0.0132,-0.0139,-0.0157,-0.0174,-0.0178,-0.0179,-0.0252,-0.0252,-0.0252,0,0,0,0,0,0,0.0104,0.0099,0.0045,0.006,0.0052,0.0007,0.0002,-0.0007,-0.002,-0.0073,-0.0083,-0.0044,-0.0125,-0.0135,-0.0163,-0.0161,-0.0179,-0.0182,-0.0252,-0.0252,-0.0252,-0.0193,0,0,0,0,0,0,0.0106,0.01,0.0102,0.0061,0.0051,0.0031,0.0002,-0.0008,-0.0023,-0.0027,-0.008,-0.009,-0.0126,-0.0157,-0.0166,-0.0166,-0.0185,-0.0252,-0.0252,-0.0252,-0.0195,-0.0191,-0.0188,0,0,0,0,0,0.0108,0.0113,0.0102,0.0097,0.0055,0.0032,0.0024,-0.001,-0.0022,-0.0025,-0.0061,-0.0088,-0.0164,-0.016,-0.017,-0.0171,-0.0252,-0.0252,-0.0252,-0.0197,-0.0192,-0.0188,0,0,0,0,0,0,0.0135,0.0107,0.0094,0.0089,0.0067,0.0023,0.0018,-0.0003,-0.0033,-0.0036,-0.0086,-0.0098,-0.0124,-0.0154,-0.0149,-0.0193,-0.0213,-0.0215,-0.0167,-0.0163,-0.016,-0.0147,-0.0188,0,0,0,0,0,0.0144,0.0142,0.011,0.0106,0.0099,0.0062,0.0048,0.0027,-0.0005,-0.0019,-0.0055,-0.0096,-0.0132,-0.0151,-0.0187,-0.0207,-0.0233,-0.0216,-0.0212,-0.0208,-0.0205,-0.0259,-0.026,-0.0252,-0.0252,-0.0252,0,0,0.0153,0.0138,0.0136,0.0113,0.0093,0.0088,0.0052,0.0039,0.0034,-0.0024,-0.004,-0.0083,-0.0135,-0.0161,-0.0176,-0.0185,-0.0217,-0.0208,-0.0205,-0.0204,-0.0259,-0.026,-0.026,-0.0252,-0.0252,-0.0252,0,0,0.0173,0.016,0.0166,0.0153,0.0132,0.0111,0.0112,0.0076,0.0059,0.0039,-0.0007,-0.0047,-0.0094,-0.0137,-0.0164,-0.016,-0.0195,-0.017,-0.0142,-0.0193,-0.0194,-0.0196,-0.0195,-0.0196,-0.0168,-0.0168,-0.0168,0,0.0186,0.019,0.0164,0.0169,0.0166,0.0128,0.0138,0.0114,0.0073,0.0063,0.0044,-0.0039,-0.0085,-0.0127,-0.013,-0.0152,-0.017,-0.0152,-0.0188,-0.019,-0.0193,-0.0192,-0.0194,-0.0166,-0.0166,-0.0166,-0.0166,0,0.0212,0.0216,0.0221,0.0217,0.021,0.0213,0.0185,0.0174,0.0152,0.0123,0.0082,0.0013,-0.0035,-0.0061,-0.0096,-0.0136,-0.0136,-0.0176,-0.0196,-0.019,-0.0189,-0.0192,-0.0161,-0.0162,-0.0163,-0.0164,0,0,0.0243,0.0241,0.0244,0.0256,0.0241,0.0241,0.0238,0.0223,0.0226,0.017,0.0164,0.0078,0.0039,0.0005,-0.0051,-0.0105,-0.0131,-0.0142,-0.0146,-0.0133,-0.0207,-0.017,-0.0171,-0.0181,-0.0182,-0.0183,-0.0186,0,0.0275,0.0302,0.0289,0.0318,0.0333,0.0307,0.0313,0.0293,0.0265,0.0249,0.0167,0.0136,0.0065,0.0044,-0.0021,-0.0102,-0.0145,-0.0124,-0.0222,-0.0223,-0.0188,-0.0177,-0.0145,-0.0143,-0.019,-0.0191,-0.0191,0,0.031,0.0325,0.0363,0.0382,0.0387,0.04,0.0409,0.0406,0.0367,0.0342,0.0285,0.0229,0.0155,0.0088,-0.0044,-0.0026,-0.0108,-0.0179,-0.0181,-0.0174,-0.0196,-0.0166,-0.0149,-0.0299,-0.0198,-0.0197,-0.0197,0,0.0358,0.0379,0.0417,0.0423,0.0435,0.0453,0.0459,0.0438,0.0454,0.0401,0.0414,0.03,0.0275,0.0134,0.001,-0.0024,-0.0123,-0.0189,-0.023,-0.0226,-0.0232,-0.0227,-0.037,-0.0291,-0.0291,-0.0291,-0.0291,0,0.0403,0.0432,0.0447,0.047,0.0525,0.051,0.0559,0.0541,0.054,0.0583,0.0471,0.0492,0.0281,0.0208,0.0054,-0.0067,-0.0085,-0.0214,-0.0233,-0.0205,-0.0198,-0.0356,-0.0443,-0.0291,-0.0291,-0.0291,-0.0291,0,0.0449,0.0457,0.0504,0.0533,0.0551,0.059,0.0642,0.0674,0.0663,0.0719,0.0716,0.0644,0.0556,0.0371,0.017,0.0029,-0.0194,-0.0166,-0.0085,-0.0096,-0.0294,-0.0376,-0.0521,-0.0581,-0.0222,-0.0222,-0.0221,0,0.0474,0.0505,0.056,0.06,0.0619,0.0676,0.0724,0.0732,0.0781,0.0834,0.088,0.0823,0.0813,0.056,0.0283,0.0045,-0.0131,-0.0091,-0.0174,-0.0289,-0.0397,-0.0465,-0.0511,-0.0144,-0.0142,-0.0141,-0.0141,0,0.0525,0.0547,0.0588,0.0673,0.0734,0.0805,0.088,0.0945,0.0984,0.1055,0.1148,0.1152,0.0936,0.0704,0.0376,0.0202,-0.0182,-0.0077,-0.0245,-0.038,-0.0418,-0.0487,-0.0123,-0.0132,-0.0133,-0.0133,-0.0134,-0.0134,0.0568,0.0608,0.0668,0.0749,0.0825,0.0932,0.1008,0.111,0.1231,0.135,0.135,0.1395,0.1065,0.0625,0.0365,-0.0082,-0.012,-0.0251,-0.0344,-0.0404,-0.0465,-0.0045,-0.0052,-0.0053,-0.0053,-0.0053,-0.0054,0,0.0617,0.0663,0.0739,0.084,0.0934,0.0966,0.1112,0.1205,0.1376,0.1492,0.1575,0.1482,0.107,0.0642,0.0034,-0.0308,-0.0444,-0.0491,-0.0615,-0.0654,-0.0322,-0.0324,-0.0331,-0.0331,-0.033,-0.033,-0.033,-0.033,0.0645,0.0722,0.0758,0.0914,0.0991,0.1128,0.1218,0.1372,0.1492,0.1654,0.1712,0.1721,0.1445,0.0329,-0.0433,-0.0607,-0.0853,-0.0891,-0.1027,-0.084,-0.0826,-0.0813,-0.0837,-0.0952,-0.0953,-0.1316,-0.132,-0.1323]}],[{"header":{"parameterUnit":"m.s-1","parameterCategory":2,"la1":30.2991,"la2":30.254,"lo1":-89.0895,"lo2":-89.0444,"dy":0.0017,"dx":0.0017,"nx":28,"ny":28,"refTime":"2023-10-03T21:00:00:Z","depth":"2","parameterNumber":2,"parameterNumberName":"U-component_of_CURRENTS"},"data":[0,0,0,0,0,0,0,0,0,0,0,0,0,0,0,0,0,0,0,0,0,0,0,0,0,0,0,0,0,0,0,0,0,0,0,0,0,0,0,0,0,0,0,0,0,0,0,0,0,0,0,0,0,0,0,0,0,0,0.243,0.243,0,0.244,0.244,0.244,0.2448,0.2448,0.2448,0.2449,0.2464,0.2465,0.2465,0,0,0,0,0,0,0,0,0,0,0,0,0,0.2421,0.2421,0.243,0.243,0.2431,0.244,0.244,0.244,0.2448,0.2448,0.2448,0.2449,0.2464,0.2465,0.2465,0,0,0,0,0,0,0,0,0,0,0,0,0,0.2425,0.2421,0.243,0.2438,0.2439,0.244,0.244,0.244,0.2447,0.2448,0.2448,0.2449,0.2464,0.2465,0.2465,0.2456,0,0,0.2465,0.2465,0,0,0,0,0,0,0,0,0.2424,0.2425,0.2436,0.2437,0.2438,0.2445,0.2443,0.2446,0.2447,0.2441,0.2449,0.2449,0.246,0.2461,0.2457,0.2457,0.2457,0.2465,0.2465,0.2465,0.2465,0,0,0,0,0,0,0,0.2424,0.2424,0.2431,0.2437,0.2438,0.2442,0.2443,0.2443,0.2446,0.2442,0.2443,0.2448,0.246,0.2457,0.2458,0.2457,0.2465,0.2465,0.2465,0.2466,0.2507,0.2508,0,0,0,0,0,0,0.2428,0.2424,0.2431,0.2432,0.2436,0.2442,0.2443,0.244,0.2446,0.2448,0.2448,0.2449,0.2457,0.2458,0.2459,0.2505,0.2465,0.2466,0.2466,0.2506,0.2507,0.2508,0,0,0,0,0,0,0.2427,0.2428,0.243,0.2431,0.2432,0.2442,0.2439,0.244,0.245,0.2451,0.2452,0.2459,0.2457,0.2458,0.2474,0.2504,0.2466,0.2466,0.2505,0.2506,0.2508,0.2562,0,0,0,0,0,0,0.2427,0.2427,0.2428,0.2431,0.2432,0.2442,0.2439,0.244,0.2453,0.2455,0.246,0.2461,0.2458,0.2474,0.2474,0.2503,0.2466,0.2503,0.2505,0.2507,0.2559,0.2566,0.2571,0,0,0,0,0,0.2426,0.2424,0.2428,0.2429,0.2432,0.2443,0.2444,0.2451,0.2454,0.246,0.2467,0.2462,0.2486,0.2474,0.2475,0.2505,0.2503,0.2505,0.2507,0.2557,0.2564,0.2571,0,0,0,0,0,0,0.2416,0.2425,0.2429,0.2429,0.2441,0.2445,0.2452,0.2457,0.2466,0.247,0.2469,0.2471,0.2498,0.249,0.2477,0.2522,0.2496,0.2498,0.2534,0.2541,0.2546,0.2579,0.2466,0,0,0,0,0,0.2416,0.2419,0.243,0.2432,0.2439,0.2448,0.2454,0.2461,0.2469,0.2474,0.2478,0.2487,0.2505,0.2513,0.252,0.2539,0.256,0.256,0.2566,0.2571,0.2597,0.266,0.2674,0.2515,0.2515,0.2515,0,0,0.2412,0.2419,0.242,0.2431,0.244,0.2455,0.2452,0.2467,0.2483,0.2474,0.2495,0.2506,0.2514,0.2541,0.2553,0.254,0.2623,0.2573,0.2578,0.2602,0.2664,0.2679,0.2693,0.2517,0.2517,0.2516,0,0,0.241,0.2414,0.242,0.2434,0.2455,0.2464,0.2473,0.2486,0.2496,0.2516,0.2523,0.2564,0.2562,0.2597,0.2609,0.2652,0.2651,0.2638,0.2696,0.2756,0.2771,0.2783,0.2815,0.283,0.2642,0.2642,0.2642,0,0.2408,0.2415,0.2425,0.2439,0.2455,0.2472,0.2489,0.2502,0.2519,0.2541,0.253,0.2587,0.2602,0.2663,0.2686,0.2672,0.2686,0.2668,0.2766,0.278,0.2792,0.2821,0.2838,0.2645,0.2645,0.2644,0.2644,0,0.2413,0.2425,0.2433,0.2459,0.2477,0.2494,0.2519,0.2542,0.2558,0.2579,0.2636,0.2661,0.2706,0.2714,0.2718,0.281,0.2784,0.2767,0.2753,0.2812,0.2838,0.2854,0.2649,0.2648,0.2647,0.2647,0,0,0.2387,0.243,0.2431,0.245,0.249,0.2503,0.2544,0.2589,0.2632,0.2655,0.2715,0.2771,0.2799,0.2818,0.2831,0.289,0.2995,0.2871,0.2872,0.2909,0.3106,0.3029,0.3039,0.2986,0.299,0.2992,0.3084,0,0.239,0.2418,0.2442,0.2476,0.2496,0.2535,0.2573,0.2619,0.2665,0.2725,0.2777,0.284,0.283,0.2872,0.293,0.2984,0.3042,0.2971,0.3038,0.3041,0.2972,0.3057,0.281,0.2867,0.31,0.3102,0.3104,0,0.2382,0.2406,0.2437,0.2493,0.2506,0.2534,0.2613,0.2651,0.2745,0.2787,0.2865,0.2907,0.3016,0.2993,0.3121,0.3069,0.3107,0.3135,0.3139,0.3066,0.2995,0.2848,0.2887,0.3131,0.3129,0.3127,0.3125,0,0.2348,0.2398,0.2424,0.2442,0.2509,0.254,0.2582,0.2671,0.2725,0.2846,0.2914,0.301,0.3085,0.3148,0.3228,0.3183,0.3354,0.3292,0.3252,0.3245,0.3052,0.3023,0.3397,0.3396,0.3396,0.3396,0.3396,0,0.2333,0.2352,0.2412,0.2424,0.2468,0.2523,0.259,0.2655,0.2768,0.2842,0.2949,0.3031,0.3134,0.3236,0.327,0.3323,0.3393,0.3295,0.3282,0.306,0.3032,0.3271,0.3255,0.3399,0.3399,0.3398,0.3397,0,0.2284,0.2325,0.2356,0.2426,0.245,0.2479,0.2583,0.2634,0.276,0.2867,0.292,0.3083,0.3196,0.3287,0.3408,0.3383,0.3442,0.3442,0.3166,0.3119,0.3269,0.3255,0.3386,0.3384,0.3383,0.3382,0.3381,0,0.226,0.2273,0.2338,0.2357,0.2388,0.2446,0.2484,0.2608,0.2668,0.2882,0.2924,0.3101,0.3172,0.3323,0.3335,0.338,0.3441,0.3172,0.3047,0.3304,0.3278,0.3266,0.3254,0.2803,0.2798,0.2793,0.279,0,0.2216,0.2241,0.2266,0.2304,0.234,0.2382,0.2451,0.2499,0.2646,0.2743,0.2875,0.2966,0.3112,0.3049,0.3135,0.3122,0.3137,0.3077,0.3455,0.2841,0.2761,0.2733,0.274,0.2749,0.2753,0.2756,0.2758,0.276,0.2178,0.2181,0.2215,0.224,0.2276,0.23,0.2303,0.2377,0.2448,0.2554,0.271,0.2756,0.283,0.281,0.2762,0.2737,0.2929,0.2799,0.2811,0.2828,0.2741,0.2663,0.2615,0.2618,0.2621,0.2623,0.2625,0,0.2117,0.2129,0.215,0.2165,0.2155,0.2215,0.2257,0.2234,0.2244,0.2371,0.244,0.2306,0.2291,0.2369,0.2269,0.229,0.2242,0.2193,0.2103,0.2148,0.2186,0.2063,0.1759,0.1756,0.1753,0.175,0,0,0.2088,0.2072,0.2076,0.2033,0.2046,0.2002,0.2002,0.1982,0.2029,0.2012,0.2021,0.22,0.2317,0.2002,0.1979,0.1851,0.1978,0.1782,0.2487,0.2428,0.2461,0.2558,0.2422,0,0,0,0,0]},{"header":{"parameterUnit":"m.s-1","parameterCategory":2,"la1":30.2991,"la2":30.254,"lo1":-89.0895,"lo2":-89.0444,"dy":0.0017,"dx":0.0017,"nx":28,"ny":28,"refTime":"2023-10-03T21:00:00:Z","depth":"2","parameterNumber":3,"parameterNumberName":"V-component_of_CURRENTS"},"data":[0,0,0,0,0,0,0,0,0,0,0,0,0,0,0,0,0,0,0,0,0,0,0,0,0,0,0,0,0,0,0,0,0,0,0,0,0,0,0,0,0,0,0,0,0,0,0,0,0,0,0,0,0,0,0,0,0,0,0.004,0.0039,0,-0.0028,-0.0029,-0.003,-0.007,-0.007,-0.0071,-0.0071,-0.014,-0.0141,-0.0143,0,0,0,0,0,0,0,0,0,0,0,0,0,0.0095,0.0094,0.004,0.0039,0.0038,-0.0028,-0.0029,-0.003,-0.007,-0.007,-0.0071,-0.0071,-0.0139,-0.0141,-0.0143,0,0,0,0,0,0,0,0,0,0,0,0,0,0.0053,0.0094,0.004,0.0011,0.0007,-0.0028,-0.0029,-0.003,-0.007,-0.007,-0.0071,-0.0071,-0.0139,-0.0141,-0.0144,-0.0156,0,0,-0.0151,-0.0153,0,0,0,0,0,0,0,0,0.0055,0.0051,0.0016,0.0013,0.0009,-0.0041,-0.0035,-0.0072,-0.007,-0.0041,-0.0071,-0.0071,-0.0106,-0.0111,-0.0125,-0.0159,-0.0162,-0.0152,-0.0153,-0.0154,-0.0155,0,0,0,0,0,0,0,0.0058,0.0053,0.0012,0.0015,0.0011,-0.0013,-0.0019,-0.0043,-0.0072,-0.0044,-0.0047,-0.0054,-0.0108,-0.0122,-0.0126,-0.0163,-0.0152,-0.0154,-0.0155,-0.0156,-0.021,-0.021,0,0,0,0,0,0,0.007,0.0056,0.0015,0.001,0.0033,-0.0014,-0.002,-0.0025,-0.0072,-0.0079,-0.0053,-0.0055,-0.0117,-0.0123,-0.0129,-0.0137,-0.0154,-0.0157,-0.0158,-0.0211,-0.021,-0.021,0,0,0,0,0,0,0.0072,0.0067,0.0017,0.0032,0.0024,-0.0014,-0.0019,-0.0026,-0.0037,-0.0079,-0.0087,-0.0057,-0.0118,-0.0125,-0.0146,-0.014,-0.0158,-0.016,-0.0211,-0.0211,-0.021,-0.0158,0,0,0,0,0,0,0.0074,0.0068,0.0069,0.0033,0.0024,0.0003,-0.0019,-0.0027,-0.0041,-0.0044,-0.0085,-0.0092,-0.0119,-0.0142,-0.0148,-0.0144,-0.0162,-0.0211,-0.0211,-0.021,-0.0159,-0.0156,-0.0152,0,0,0,0,0,0.0076,0.0078,0.007,0.0065,0.0026,0.0004,-0.0003,-0.0032,-0.0041,-0.0043,-0.007,-0.009,-0.0145,-0.0143,-0.0151,-0.0147,-0.0211,-0.0211,-0.021,-0.0161,-0.0156,-0.0152,0,0,0,0,0,0,0.01,0.0073,0.0063,0.0057,0.0036,-0.0003,-0.0008,-0.0026,-0.005,-0.0051,-0.0089,-0.0098,-0.0114,-0.0138,-0.0135,-0.0163,-0.0181,-0.0183,-0.0141,-0.0137,-0.0134,-0.0118,-0.0164,0,0,0,0,0,0.0107,0.0105,0.0074,0.0071,0.0063,0.003,0.0018,0.0,-0.0026,-0.0037,-0.0066,-0.0095,-0.012,-0.0133,-0.0159,-0.0173,-0.0192,-0.0176,-0.0172,-0.0169,-0.0162,-0.0189,-0.0187,-0.0209,-0.0209,-0.0209,0,0,0.0114,0.0101,0.0098,0.0076,0.0058,0.0054,0.0022,0.001,0.0007,-0.004,-0.005,-0.0083,-0.0121,-0.0137,-0.0147,-0.0156,-0.0172,-0.0169,-0.0166,-0.0161,-0.0189,-0.0186,-0.0184,-0.0209,-0.0209,-0.0209,0,0,0.0131,0.0118,0.0123,0.0112,0.0092,0.0073,0.0074,0.0041,0.0028,0.0013,-0.0021,-0.005,-0.0085,-0.0115,-0.0133,-0.0126,-0.0152,-0.0132,-0.0102,-0.0128,-0.0126,-0.0125,-0.0138,-0.0138,-0.0131,-0.013,-0.013,0,0.0142,0.0145,0.0121,0.0125,0.0123,0.0088,0.0096,0.0077,0.0042,0.0039,0.0019,-0.0036,-0.0076,-0.0094,-0.0098,-0.0118,-0.0129,-0.0113,-0.0122,-0.0121,-0.0121,-0.0135,-0.0136,-0.0128,-0.0128,-0.0128,-0.0129,0,0.0163,0.0168,0.0171,0.0169,0.0162,0.0164,0.014,0.0133,0.0114,0.0093,0.0072,0.0015,-0.0016,-0.0037,-0.0069,-0.0083,-0.009,-0.0113,-0.0129,-0.0115,-0.0131,-0.0133,-0.0124,-0.0125,-0.0126,-0.0126,0,0,0.0188,0.0188,0.0191,0.0204,0.019,0.019,0.0191,0.0183,0.0194,0.015,0.0158,0.009,0.006,0.0036,-0.0009,-0.004,-0.0058,-0.0071,-0.0074,-0.0077,-0.01,-0.0114,-0.0118,-0.0078,-0.0078,-0.0078,-0.0109,0,0.0216,0.0242,0.0231,0.0259,0.0273,0.0252,0.0262,0.025,0.0232,0.023,0.0171,0.0154,0.0089,0.0075,0.0034,-0.003,-0.0061,-0.0047,-0.0119,-0.0121,-0.013,-0.012,-0.0082,-0.0107,-0.0111,-0.0111,-0.0111,0,0.0247,0.0262,0.0298,0.032,0.0325,0.0338,0.0356,0.0358,0.0341,0.0328,0.0296,0.025,0.0197,0.0139,0.0041,0.0058,-0.0017,-0.0072,-0.0075,-0.0108,-0.0139,-0.0125,-0.0111,-0.0115,-0.0115,-0.0114,-0.0114,0,0.029,0.0312,0.0348,0.0354,0.0369,0.0388,0.0397,0.0392,0.0413,0.0391,0.0406,0.033,0.0309,0.0204,0.0076,0.0062,-0.0026,-0.0062,-0.0142,-0.0144,-0.0136,-0.0137,-0.0133,-0.0133,-0.0133,-0.0133,-0.0133,0,0.033,0.0358,0.0375,0.0397,0.0451,0.0441,0.0494,0.049,0.0504,0.055,0.0463,0.0483,0.0325,0.0251,0.0118,-0.0008,0.0005,-0.0131,-0.0153,-0.0117,-0.0115,-0.0146,-0.0147,-0.0134,-0.0134,-0.0134,-0.0134,0,0.0371,0.038,0.0425,0.0457,0.0475,0.0514,0.0567,0.0603,0.0606,0.0666,0.0665,0.0606,0.0513,0.035,0.0187,0.0063,-0.0073,-0.0126,-0.0067,-0.0082,-0.0183,-0.0181,-0.0212,-0.0213,-0.0214,-0.0214,-0.0215,0,0.0393,0.0422,0.0477,0.0515,0.0535,0.0591,0.0637,0.0656,0.0705,0.0751,0.0793,0.0721,0.069,0.0448,0.0213,-0.001,-0.0058,-0.013,-0.0167,-0.0173,-0.0192,-0.0189,-0.0186,-0.0131,-0.0131,-0.0131,-0.0131,0,0.0439,0.0459,0.0499,0.0579,0.0637,0.0704,0.0774,0.0832,0.0875,0.093,0.0988,0.0965,0.0751,0.0531,0.022,0.0072,-0.0095,-0.0133,-0.0147,-0.0121,-0.01,-0.0118,-0.0117,-0.0129,-0.0129,-0.0129,-0.0129,-0.0129,0.0477,0.0513,0.0571,0.0646,0.0717,0.0812,0.088,0.0964,0.1062,0.1148,0.1129,0.1111,0.0859,0.0472,0.02,-0.0079,-0.0072,-0.0177,-0.0176,-0.0175,-0.0164,-0.0146,-0.018,-0.0181,-0.0181,-0.0182,-0.0182,0,0.0521,0.0561,0.0632,0.0723,0.0806,0.084,0.0967,0.1039,0.1167,0.1241,0.128,0.1067,0.0823,0.053,0.0119,-0.0136,-0.0148,-0.0212,-0.0179,-0.0177,-0.0177,-0.0166,-0.0183,-0.0184,-0.0185,-0.0186,0,0,0.0544,0.0612,0.0644,0.078,0.0851,0.0969,0.1047,0.1159,0.1241,0.131,0.131,0.1267,0.0926,0.0622,0.0281,0.0042,-0.0008,0.0005,0.0038,0.012,0.0123,-0.012,-0.0097,0,0,0,0,0]}],[{"header":{"parameterUnit":"m.s-1","parameterCategory":2,"la1":30.2991,"la2":30.254,"lo1":-89.0895,"lo2":-89.0444,"dy":0.0017,"dx":0.0017,"nx":28,"ny":28,"refTime":"2023-10-03T21:00:00:Z","depth":"4","parameterNumber":2,"parameterNumberName":"U-component_of_CURRENTS"},"data":[0,0,0,0,0,0,0,0,0,0,0,0,0,0,0,0,0,0,0,0,0,0,0,0,0,0,0,0,0,0,0,0,0,0,0,0,0,0,0,0,0,0,0,0,0,0,0,0,0,0,0,0,0,0,0,0,0,0,0.1632,0.1632,0,0.1656,0.1656,0.1656,0.1682,0.1683,0.1683,0.1684,0.17,0.17,0.1699,0,0,0,0,0,0,0,0,0,0,0,0,0,0.1588,0.1588,0.1632,0.1632,0.1633,0.1656,0.1656,0.1656,0.1682,0.1683,0.1683,0.1684,0.17,0.17,0.1699,0,0,0,0,0,0,0,0,0,0,0,0,0,0.1606,0.1588,0.1632,0.1651,0.1653,0.1656,0.1656,0.1656,0.1682,0.1683,0.1684,0.1685,0.17,0.17,0.1699,0.1679,0,0,0.1699,0.1699,0,0,0,0,0,0,0,0,0.1605,0.1607,0.1647,0.1649,0.1652,0.1669,0.1646,0.1664,0.1681,0.1668,0.1684,0.1685,0.169,0.1691,0.1689,0.1679,0.168,0.1699,0.1698,0.1698,0.1698,0,0,0,0,0,0,0,0.1604,0.1606,0.1638,0.1648,0.1651,0.1651,0.1655,0.165,0.1671,0.1669,0.1672,0.1679,0.1691,0.1689,0.169,0.168,0.1699,0.1698,0.1698,0.1698,0.1738,0.1739,0,0,0,0,0,0,0.1607,0.1605,0.1638,0.1639,0.1634,0.1652,0.1655,0.166,0.1671,0.1675,0.1678,0.168,0.1689,0.169,0.169,0.1741,0.1698,0.1698,0.1698,0.1737,0.1738,0.174,0,0,0,0,0,0,0.1605,0.1609,0.1637,0.1625,0.1629,0.1652,0.1657,0.1661,0.1693,0.1678,0.1681,0.1711,0.169,0.1691,0.1712,0.1739,0.1698,0.1698,0.1736,0.1737,0.1739,0.1794,0,0,0,0,0,0,0.1604,0.1608,0.1629,0.1625,0.163,0.1659,0.1657,0.166,0.1695,0.1699,0.1707,0.1708,0.1691,0.1712,0.1712,0.1738,0.1698,0.1734,0.1736,0.1739,0.179,0.1797,0.1803,0,0,0,0,0,0.1602,0.1618,0.1629,0.1634,0.1652,0.166,0.1663,0.168,0.1697,0.1713,0.172,0.171,0.1727,0.1713,0.1712,0.1738,0.1733,0.1736,0.1738,0.1787,0.1796,0.1803,0,0,0,0,0,0,0.1606,0.1622,0.1635,0.1655,0.167,0.1667,0.169,0.17,0.1719,0.1734,0.172,0.1721,0.1753,0.1738,0.1723,0.1758,0.173,0.1733,0.1768,0.1775,0.1782,0.1787,0.1697,0,0,0,0,0,0.1618,0.1639,0.1648,0.167,0.1681,0.1694,0.1708,0.1719,0.1728,0.174,0.1746,0.1753,0.1756,0.1762,0.1764,0.1777,0.178,0.1795,0.1802,0.1807,0.1811,0.1831,0.1839,0.1749,0.1749,0.1749,0,0,0.1627,0.164,0.1653,0.1674,0.1689,0.1704,0.1705,0.1736,0.1753,0.1737,0.1775,0.178,0.1767,0.1786,0.1799,0.178,0.1841,0.1811,0.1815,0.1816,0.1834,0.1843,0.1851,0.1751,0.175,0.175,0,0,0.1642,0.1669,0.1689,0.1704,0.1736,0.1739,0.1757,0.1776,0.1795,0.1822,0.1819,0.1839,0.1849,0.1839,0.1834,0.1876,0.1878,0.1889,0.1919,0.1938,0.1945,0.1952,0.1992,0.2001,0.1886,0.1886,0.1886,0,0.1656,0.1678,0.1696,0.1717,0.1735,0.1759,0.1778,0.1794,0.182,0.1834,0.1846,0.1873,0.1868,0.1876,0.1896,0.1889,0.1914,0.1889,0.1946,0.1952,0.1958,0.1997,0.2007,0.1889,0.1889,0.1889,0.1888,0,0.1672,0.1704,0.1719,0.1751,0.1771,0.1797,0.1816,0.1847,0.1878,0.1888,0.1929,0.1926,0.1938,0.1946,0.1934,0.1973,0.1984,0.1957,0.1926,0.197,0.2009,0.2019,0.1893,0.1892,0.1891,0.1891,0,0,0.166,0.172,0.1728,0.1751,0.1796,0.1805,0.1845,0.1872,0.1899,0.1936,0.1966,0.1984,0.1999,0.1995,0.1991,0.201,0.2079,0.2012,0.2012,0.2051,0.2154,0.2037,0.2036,0.2071,0.2072,0.2073,0.2174,0,0.167,0.1711,0.174,0.1781,0.1801,0.1838,0.1864,0.1896,0.1931,0.1967,0.1982,0.2018,0.2011,0.2036,0.2052,0.2071,0.2104,0.2056,0.2106,0.2107,0.1996,0.2041,0.2078,0.2181,0.2183,0.2184,0.2186,0,0.1665,0.1697,0.1741,0.1793,0.1806,0.1839,0.1888,0.1917,0.1966,0.1997,0.2037,0.2058,0.21,0.2089,0.215,0.2129,0.2155,0.2168,0.2171,0.2044,0.2005,0.2121,0.2202,0.2201,0.2199,0.2198,0.2197,0,0.1625,0.1691,0.1729,0.1749,0.1811,0.1846,0.1884,0.1935,0.1962,0.2035,0.2074,0.2113,0.2158,0.2186,0.2226,0.2203,0.2296,0.2254,0.2176,0.217,0.2222,0.2214,0.2304,0.2304,0.2304,0.2304,0.2303,0,0.1599,0.1633,0.1724,0.1742,0.1787,0.184,0.189,0.1934,0.1997,0.203,0.2098,0.213,0.2191,0.2243,0.2257,0.2251,0.2323,0.2194,0.2182,0.2247,0.224,0.2231,0.2221,0.2307,0.2306,0.2306,0.2305,0,0.1538,0.1602,0.165,0.1738,0.1771,0.1805,0.1895,0.1917,0.2006,0.2056,0.2091,0.2175,0.2243,0.2296,0.2355,0.2287,0.2293,0.2279,0.2382,0.2374,0.2152,0.2144,0.2184,0.218,0.2178,0.2175,0.2173,0,0.1506,0.153,0.1639,0.1669,0.1719,0.1785,0.1817,0.1908,0.1934,0.2062,0.207,0.2186,0.223,0.2222,0.2284,0.2309,0.2282,0.2274,0.217,0.2152,0.2138,0.2135,0.2131,0.2168,0.2168,0.2167,0.2166,0,0.1441,0.1501,0.1542,0.1609,0.1662,0.1699,0.1765,0.1771,0.187,0.1979,0.2005,0.2038,0.2114,0.2143,0.2194,0.2198,0.2258,0.2242,0.2247,0.215,0.2133,0.2122,0.2121,0.2156,0.2158,0.2158,0.2159,0,0.14,0.1414,0.1482,0.1523,0.1585,0.1588,0.1633,0.1666,0.1705,0.1846,0.1858,0.1981,0.2092,0.209,0.2128,0.2131,0.2086,0.1998,0.2015,0.2027,0.1925,0.1878,0.182,0,0,0,0,0,0.1345,0.1348,0.1385,0.1415,0.1469,0.1506,0.1578,0.1623,0.1731,0.1707,0.1774,0.1836,0.1884,0.1946,0.1918,0.206,0.2097,0.2017,0.2004,0.21,0.2112,0.2004,0,0,0,0,0,0,0.1306,0.1343,0.1349,0.1315,0.1318,0.1356,0.14,0.1475,0.1463,0.159,0.1627,0.1735,0.1811,0.1893,0.1888,0.1909,0.1864,0.2102,0.2097,0.2093,0.2104,0.2113,0.2007,0,0,0,0,0]},{"header":{"parameterUnit":"m.s-1","parameterCategory":2,"la1":30.2991,"la2":30.254,"lo1":-89.0895,"lo2":-89.0444,"dy":0.0017,"dx":0.0017,"nx":28,"ny":28,"refTime":"2023-10-03T21:00:00:Z","depth":"4","parameterNumber":3,"parameterNumberName":"V-component_of_CURRENTS"},"data":[0,0,0,0,0,0,0,0,0,0,0,0,0,0,0,0,0,0,0,0,0,0,0,0,0,0,0,0,0,0,0,0,0,0,0,0,0,0,0,0,0,0,0,0,0,0,0,0,0,0,0,0,0,0,0,0,0,0,0.0066,0.0066,0,0.0022,0.0022,0.0021,0.0001,0.0001,0.0001,0.0001,-0.0034,-0.0035,-0.0036,0,0,0,0,0,0,0,0,0,0,0,0,0,0.0104,0.0103,0.0066,0.0066,0.0065,0.0022,0.0022,0.0021,0.0001,0.0001,0.0001,0.0001,-0.0034,-0.0035,-0.0036,0,0,0,0,0,0,0,0,0,0,0,0,0,0.0077,0.0103,0.0066,0.005,0.0048,0.0022,0.0022,0.0021,0.0001,0.0001,0.0001,0.0001,-0.0034,-0.0035,-0.0036,-0.0046,0,0,-0.0041,-0.0041,0,0,0,0,0,0,0,0,0.0078,0.0075,0.0053,0.0051,0.0049,0.0017,0.0022,-0.0001,0.0001,0.0019,0.0001,0.0001,-0.0016,-0.0019,-0.0028,-0.0047,-0.0049,-0.0041,-0.0042,-0.0042,-0.0043,0,0,0,0,0,0,0,0.008,0.0077,0.0049,0.0052,0.005,0.0034,0.0031,0.0017,0.0002,0.0017,0.0016,0.0011,-0.0018,-0.0026,-0.0029,-0.005,-0.0041,-0.0042,-0.0043,-0.0044,-0.0069,-0.0069,0,0,0,0,0,0,0.0087,0.0079,0.0051,0.0048,0.0064,0.0034,0.003,0.0027,0.0002,-0.0002,0.0011,0.001,-0.0024,-0.0027,-0.003,-0.0023,-0.0042,-0.0044,-0.0045,-0.0069,-0.0069,-0.0069,0,0,0,0,0,0,0.0088,0.0085,0.0052,0.0062,0.0057,0.0033,0.003,0.0026,0.0021,-0.0004,-0.0007,0.0009,-0.0024,-0.0028,-0.0037,-0.0025,-0.0044,-0.0046,-0.0069,-0.0069,-0.0069,-0.0021,0,0,0,0,0,0,0.0089,0.0085,0.0087,0.0063,0.0056,0.0043,0.003,0.0025,0.0017,0.0016,-0.0006,-0.0009,-0.0024,-0.0035,-0.0038,-0.0027,-0.0047,-0.007,-0.0069,-0.0069,-0.0023,-0.0019,-0.0016,0,0,0,0,0,0.0091,0.0092,0.0087,0.0084,0.0059,0.0043,0.0039,0.0022,0.0017,0.0017,0.0003,-0.0008,-0.0035,-0.0036,-0.004,-0.0029,-0.007,-0.0069,-0.0069,-0.0024,-0.002,-0.0016,0,0,0,0,0,0,0.0107,0.0089,0.0084,0.0079,0.0066,0.004,0.0037,0.0026,0.0014,0.0014,-0.0007,-0.0012,-0.0016,-0.0031,-0.0031,-0.0036,-0.0054,-0.0054,-0.0019,-0.0015,-0.0011,0.0004,-0.0048,0,0,0,0,0,0.0112,0.0111,0.009,0.0088,0.0083,0.0062,0.0053,0.0043,0.0027,0.0022,0.0006,-0.0009,-0.0019,-0.0023,-0.0038,-0.004,-0.0058,-0.0036,-0.0033,-0.0029,-0.0021,-0.0031,-0.0027,-0.0067,-0.0067,-0.0067,0,0,0.0117,0.0108,0.0107,0.0092,0.008,0.0079,0.0057,0.0048,0.0051,0.002,0.0019,0.0,-0.0018,-0.002,-0.0023,-0.0029,-0.0032,-0.0029,-0.0026,-0.0019,-0.003,-0.0026,-0.0022,-0.0067,-0.0067,-0.0067,0,0,0.0128,0.012,0.0124,0.0117,0.0103,0.0092,0.0093,0.007,0.0065,0.0058,0.004,0.0032,0.0011,0.0005,-0.0001,0.0012,-0.0015,0.0004,0.0037,0.0028,0.0031,0.0034,0.0,-0.0,0.0009,0.0009,0.0009,0,0.0135,0.0139,0.0122,0.0126,0.0127,0.0102,0.0111,0.0101,0.0079,0.0083,0.0065,0.0045,0.0026,0.0034,0.0037,0.0022,0.0002,0.0026,0.0034,0.0036,0.0039,0.0003,0.0002,0.0011,0.0011,0.0011,0.001,0,0.015,0.0156,0.0158,0.016,0.0157,0.016,0.0147,0.0146,0.0136,0.0126,0.0125,0.0096,0.0089,0.0078,0.0062,0.0071,0.0045,0.0038,0.0027,0.0046,0.0006,0.0004,0.0014,0.0014,0.0013,0.0012,0,0,0.0163,0.0169,0.0172,0.0186,0.0179,0.0182,0.0191,0.0196,0.0212,0.0185,0.0203,0.0177,0.016,0.0152,0.0127,0.0116,0.0104,0.0087,0.0085,0.0059,0.0064,0.0037,0.0031,0.01,0.01,0.0101,0.0024,0,0.0183,0.0206,0.0201,0.023,0.0243,0.0235,0.0252,0.0253,0.0247,0.0256,0.023,0.0232,0.0188,0.0189,0.017,0.0124,0.0104,0.0124,0.0044,0.0042,0.0021,0.0031,0.0102,0.0022,0.0022,0.0022,0.0021,0,0.0203,0.0218,0.025,0.028,0.0287,0.0302,0.0334,0.0343,0.0347,0.0344,0.0335,0.0309,0.0288,0.0252,0.0179,0.0193,0.0134,0.0091,0.0088,0.0048,0.0012,0.0002,0.0017,0.0018,0.0018,0.0018,0.0018,0,0.023,0.0256,0.0289,0.0297,0.0322,0.0345,0.0362,0.0375,0.0399,0.0403,0.0417,0.0377,0.0366,0.0294,0.0191,0.0189,0.0103,0.009,0.0006,0.0002,0.0028,0.0026,0.0045,0.0045,0.0045,0.0045,0.0045,0,0.0256,0.0283,0.0309,0.0328,0.0382,0.0385,0.044,0.0449,0.0474,0.0512,0.0467,0.0477,0.0378,0.0313,0.0214,0.0097,0.0116,0.0014,-0.0011,0.0046,0.0047,0.0025,0.0024,0.0042,0.0043,0.0044,0.0044,0,0.0278,0.0293,0.0336,0.0376,0.0397,0.0435,0.0494,0.0531,0.0546,0.0593,0.06,0.0555,0.0465,0.0345,0.0222,0.0131,0.0021,-0.0025,0.003,0.0008,-0.0083,-0.0081,-0.0121,-0.0122,-0.0124,-0.0125,-0.0125,0,0.029,0.0315,0.0375,0.041,0.0432,0.049,0.0536,0.0569,0.0608,0.0638,0.0663,0.0598,0.0548,0.0348,0.0213,0.0015,-0.0012,-0.0079,-0.0067,-0.0076,-0.0096,-0.0092,-0.0089,-0.0127,-0.0128,-0.0128,-0.0128,0,0.0314,0.0338,0.0375,0.0448,0.0504,0.0568,0.0631,0.0666,0.0709,0.0723,0.0719,0.0622,0.0516,0.0352,0.0193,0.0054,-0.0039,-0.0092,-0.009,-0.008,-0.0084,-0.0102,-0.0097,-0.0132,-0.0132,-0.0131,-0.0131,0,0.0336,0.0365,0.0418,0.0482,0.0554,0.0624,0.0656,0.0702,0.0741,0.0769,0.0762,0.0651,0.0589,0.0371,0.0228,0.0082,0.0046,-0.0001,-0.0005,-0.0002,0.0052,0.0065,0.0046,0,0,0,0,0,0.0353,0.0386,0.0446,0.0517,0.0589,0.0633,0.0712,0.0738,0.078,0.0784,0.0777,0.0678,0.0475,0.0387,0.0237,0.019,0.0009,0.0008,-0.005,-0.0156,-0.0151,-0.011,0,0,0,0,0,0,0.0363,0.0418,0.0444,0.0536,0.0587,0.0672,0.0724,0.0754,0.0754,0.0771,0.0665,0.0628,0.0425,0.0558,0.023,0.0187,0.0126,-0.0083,-0.0086,-0.0158,-0.0154,-0.015,-0.0107,0,0,0,0,0]}]]